Weather History for Anchorage Merrill, AK

Change the Weather History Date:

Saturday, September 1, 2012

  Actual Average Record
Temperature  
Mean Temperature 52 °F -  
Max Temperature 55 °F 59 °F 66 °F (2010)
Min Temperature 48 °F 45 °F 39 °F (2014)
Degree Days  
Heating Degree Days 14    
Growing Degree Days 2 (Base 50)    
Moisture  
Dew Point 48 °F    
Average Humidity 92    
Maximum Humidity 100    
Minimum Humidity 80    
Precipitation  
Precipitation 0.30 in - - ()
Sea Level Pressure  
Sea Level Pressure 29.59 in    
Wind  
Wind Speed 5 mph (NNW)    
Max Wind Speed 9 mph    
Max Gust Speed -    
Visibility 8 miles    
Events Rain    
Averages and records for this station are not official NWS values.
T = Trace of Precipitation, MM = Missing Value Source: NWS Daily Summary

Daily Weather History Graph

Daily Weather History Graph

Search for Another Location

Airport:

Trip Planner

Search our weather history database for the weather conditions in past years. The results will help you decide how hot, cold, wet, or windy it might be!

Date:

Astronomy

Sep. 01, 2012 Rise Set
Actual Time 6:52 AM AKDT 9:03 PM AKDT
Civil Twilight 6:05 AM AKDT 9:50 PM AKDT
Nautical Twilight 5:04 AM AKDT 10:51 PM AKDT
Astronomical Twilight 3:40 AM AKDT 12:12 AM AKDT
Moon 8:37 PM AKDT (9/1) 8:51 AM AKDT (9/1)
Length of Visible Light 15h 44m
Length of Day
14h 10m
Full, 98% of the Moon is Illuminated
Sep 1
Full
Sep 8
Last Quarter
Sep 15
New
Sep 22
First Quarter
Sep 29
Full

Hourly Weather History & Observations

Time (AKDT) Temp. Dew Point Humidity Pressure Visibility Wind Dir Wind Speed Gust Speed Precip Events Conditions
12:31 AM 50.0 °F 46.4 °F 87% 29.60 in 10.0 mi Calm Calm - 0.01 in Rain Light Rain
12:53 AM 50.0 °F 48.0 °F 93% 29.59 in 10.0 mi North 6.9 mph - 0.02 in   Overcast
1:53 AM 48.9 °F 46.9 °F 93% 29.58 in 10.0 mi NNW 6.9 mph - 0.00 in   Overcast
2:53 AM 48.9 °F 46.9 °F 93% 29.57 in 10.0 mi North 5.8 mph - N/A   Overcast
3:53 AM 48.9 °F 46.9 °F 93% 29.56 in 10.0 mi North 4.6 mph - 0.00 in Rain Light Rain
4:53 AM 48.9 °F 46.9 °F 93% 29.55 in 10.0 mi North 4.6 mph - 0.03 in Rain Light Rain
5:53 AM 48.9 °F 46.9 °F 93% 29.54 in 10.0 mi North 3.5 mph - 0.02 in Rain Light Rain
6:34 AM 48.2 °F 46.4 °F 93% 29.53 in 10.0 mi North 3.5 mph - 0.02 in Rain Light Rain
6:53 AM 48.9 °F 48.0 °F 97% 29.53 in 5.0 mi North 3.5 mph - 0.02 in Rain Light Rain
7:53 AM 48.9 °F 46.9 °F 93% 29.52 in 10.0 mi North 4.6 mph - 0.01 in Rain Light Rain
8:27 AM 48.2 °F 48.2 °F 100% 29.52 in 5.0 mi North 4.6 mph - 0.01 in Rain Light Rain
8:53 AM 48.9 °F 46.9 °F 93% 29.53 in 4.0 mi North 3.5 mph - 0.01 in Rain Light Rain
9:53 AM 48.9 °F 48.0 °F 97% 29.53 in 5.0 mi North 4.6 mph - 0.03 in Rain Light Rain
10:53 AM 50.0 °F 48.0 °F 93% 29.53 in 10.0 mi NNW 4.6 mph - 0.01 in Rain Light Rain
11:53 AM 50.0 °F 48.9 °F 96% 29.54 in 10.0 mi NNW 3.5 mph - 0.01 in Rain Light Rain
12:53 PM 52.0 °F 48.9 °F 89% 29.54 in 10.0 mi North 4.6 mph - 0.00 in Rain Light Rain
1:53 PM 52.0 °F 48.9 °F 89% 29.54 in 10.0 mi North 4.6 mph - 0.00 in Rain Light Rain
2:53 PM 53.1 °F 50.0 °F 89% 29.54 in 10.0 mi North 3.5 mph - 0.01 in Rain Light Rain
3:32 PM 53.6 °F 48.2 °F 82% 29.54 in 10.0 mi NNW 3.5 mph - 0.00 in Rain Light Rain
3:53 PM 54.0 °F 48.9 °F 83% 29.54 in 10.0 mi NNE 3.5 mph - 0.00 in   Overcast
4:53 PM 55.0 °F 48.9 °F 80% 29.55 in 10.0 mi Calm Calm - 0.00 in Rain Light Rain
5:53 PM 53.1 °F 51.1 °F 93% 29.57 in 3.0 mi SSW 6.9 mph - 0.04 in Rain Heavy Rain
6:53 PM 52.0 °F 48.9 °F 89% 29.59 in 8.0 mi SSW 6.9 mph - 0.04 in Rain Light Rain
7:53 PM 52.0 °F 48.0 °F 86% 29.61 in 10.0 mi SSW 6.9 mph - 0.00 in   Mostly Cloudy
8:53 PM 51.1 °F 48.0 °F 89% 29.62 in 10.0 mi South 8.1 mph - N/A   Overcast
9:53 PM 50.0 °F 48.9 °F 96% 29.65 in 5.0 mi South 6.9 mph - 0.01 in Rain Light Rain
10:05 PM 50.0 °F 48.2 °F 94% 29.65 in 10.0 mi South 6.9 mph - 0.00 in Rain Light Rain
10:20 PM 50.0 °F 48.2 °F 94% 29.65 in 10.0 mi South 8.1 mph - 0.00 in Rain Light Rain
10:24 PM 50.0 °F 48.2 °F 94% 29.66 in 10.0 mi South 8.1 mph - 0.00 in Rain Light Rain
10:26 PM 50.0 °F 48.2 °F 94% 29.66 in 10.0 mi South 9.2 mph - 0.00 in Rain Light Rain
10:30 PM 50.0 °F 48.2 °F 94% 29.66 in 5.0 mi South 6.9 mph - 0.00 in Rain Light Rain
10:44 PM 50.0 °F 48.2 °F 94% 29.66 in 3.0 mi South 5.8 mph - 0.03 in Rain Light Rain
10:51 PM 50.0 °F 48.2 °F 94% 29.66 in 2.5 mi South 5.8 mph - 0.04 in Rain Light Rain
10:53 PM 50.0 °F 48.9 °F 96% 29.67 in 2.5 mi South 4.6 mph - 0.04 in Rain Light Rain
11:02 PM 50.0 °F 48.2 °F 94% 29.66 in 3.0 mi South 6.9 mph - 0.00 in Rain Light Rain
11:13 PM 50.0 °F 48.2 °F 94% 29.66 in 7.0 mi South 4.6 mph - 0.00 in Rain Light Rain